Regional Weather Roundup
Issued by NWS

Home | Current Version | Previous Version | Text Only | Print | Product List | Glossary Off
Versions: 1 2 3 4 5 6 7 8 9 10 11 12 13 14 15 16 17 18 19 20 21 22 23 24 25 26 27 28 29 30 31 32 33 34 35 36 37 38 39 40 41 42 43 44 45 46 47 48 49 50

963
ASUS43 KOAX 292102
RWRNE

WEATHER ROUNDUP FOR NEBRASKA
NATIONAL WEATHER SERVICE OMAHA NE
400 PM CDT MON MAY 29 2017

NOTES: SATELLITE DATA IS BEING USED TO AUGMENT CLOUD COVER ABOVE
       12000 FEET.
       "FAIR" INDICATES FEW OR NO CLOUDS BELOW 12,000 FEET WITH NO
       SIGNIFICANT WEATHER AND/OR OBSTRUCTIONS TO VISIBILITY.

  * THESE STATIONS DO NOT REPORT WEATHER SUCH AS RAIN...SNOW OR FOG.

NEZ001>004-019>022-054>056-292200-
NEBRASKA PANHANDLE

CITY           SKY/WX    TMP DP  RH WIND       PRES   REMARKS
SCOTTSBLUFF    SUNNY     73  33  23 NW15G31   30.15F
ALLIANCE       SUNNY     69  35  28 NW17G26   30.13F
CHADRON        SUNNY     69  42  37 VRB7      30.12F
GORDON         FAIR      68  38  33 N12G18    30.12F
KIMBALL        PTSUNNY   67  36  32 N10G16    30.19F
SIDNEY         SUNNY     70  40  33 N14G25    30.17F
$$

NEZ057>060-069>072-079>082-292200-
SOUTHWEST NEBRASKA

CITY           SKY/WX    TMP DP  RH WIND       PRES   REMARKS
NORTH PLATTE   SUNNY     73  36  25 N15G30    30.10F
IMPERIAL       MOSUNNY   73  39  29 N8        30.12F
LEXINGTON      SUNNY     75  32  20 N18       30.09F
MCCOOK         MOSUNNY   76  40  27 NW15G22   30.09F
OGALLALA       MOSUNNY   75  36  24 NW20G25   30.12F
$$

NEZ005>010-023>029-035>040-094-292200-
NORTH CENTRAL NEBRASKA

CITY           SKY/WX    TMP DP  RH WIND       PRES   REMARKS
VALENTINE      PTSUNNY   68  34  28 NW17      30.10F
AINSWORTH      PTSUNNY   66  38  34 N15G26    30.10S
BROKEN BOW     SUNNY     73  35  25 NW20G28   30.09F
O`NEILL        PTSUNNY   68  35  29 NW14G28   30.07S
ORD            MOSUNNY   68  34  28 NW17G26   30.07F
THEDFORD       MOSUNNY   71  36  28 NW20      30.11F
$$

NEZ041-046>049-061>064-073>077-083>087-292200-
SOUTH CENTRAL NEBRASKA

CITY           SKY/WX    TMP DP  RH WIND       PRES   REMARKS
GRAND ISLAND   PTSUNNY   75  37  25 W16G29    30.07F
AURORA         MOSUNNY   75  34  22 N18G24    30.06S
HASTINGS       SUNNY     76  37  24 NW17G25   30.07F
HEBRON         MOSUNNY   78  37  22 NW10G18   30.04S
HOLDREGE       SUNNY     74  32  21 NW14G23   30.08F
KEARNEY *      MOSUNNY   73  37  27 N13G22    30.09S
YORK           MOSUNNY   73  32  21 NW23      30.05S
$$

NEZ011>018-030>034-042>045-292200-
NORTHEAST NEBRASKA

CITY           SKY/WX    TMP DP  RH WIND       PRES   REMARKS
NORFOLK        MOSUNNY   70  39  32 NW20G29   30.03S
ALBION         MOSUNNY   71  36  28 NW18G28   30.07S
BLAIR          SUNNY     73  37  27 NW15G25   30.00S
FREMONT        MOSUNNY   74  37  26 NW21G29   30.02F
TEKAMAH        PTSUNNY   74  37  26 W17G25    29.99S
WAYNE          CLOUDY    69  42  37 NW21G30   30.02S
$$

NEZ050>053-065>068-078-088>093-292200-
SOUTHEAST NEBRASKA

CITY           SKY/WX    TMP DP  RH WIND       PRES   REMARKS
LINCOLN        MOSUNNY   76  36  23 NW17G32   30.03S
OMAHA EPPLEY   MOSUNNY   75  37  25 NW21G28   29.99S
BEATRICE       MOSUNNY   78  45  31 NW13G24   30.02S
NEBRASKA CITY  MOSUNNY   77  28  17 NW18G25   30.00F
PLATTSMOUTH    MOSUNNY   77  33  20 NW18G30   30.00S
$$

NEZ044-045-051>053-067-292200-
OMAHA AREA

CITY           SKY/WX    TMP DP  RH WIND       PRES   REMARKS
OMAHA EPPLEY   MOSUNNY   75  37  25 NW21G28   29.99S
BLAIR          SUNNY     73  37  27 NW15G25   30.00S
FREMONT        MOSUNNY   74  37  26 NW21G29   30.02F
MILLARD        MOSUNNY   75  42  30 NW17G25   30.00S
OFFUTT AFB     MOSUNNY   75  39  27 W22G30    29.98F
PLATTSMOUTH    MOSUNNY   77  33  20 NW18G30   30.00S
WAHOO          FAIR      77  31  18 W26G33    30.02S
$$




USA.gov is the U.S. government's official web portal to all federal, state and local government web resources and services.